| time (UTC) | temp F | wind direction | speed knots | gust knots | rain 1hr in | rain 24hr in | rain mn in | humidity % | barometer mb |
| 20260503195545 | 84 | 312 | 2.6 | 7.0 | 0.00 | 0.00 | 0.00 | 47 | 1009.6 |
| 20260503195043 | 83 | 345 | 3.5 | 7.0 | 0.00 | 0.00 | 0.00 | 50 | 1009.8 |
| 20260503194543 | 83 | 315 | 1.7 | 5.2 | 0.00 | 0.00 | 0.00 | 43 | 1009.8 |
| 20260503194041 | 82 | 307 | 3.5 | 7.8 | 0.00 | 0.00 | 0.00 | 45 | 1009.8 |
| 20260503193540 | 82 | 306 | 2.6 | 7.8 | 0.00 | 0.00 | 0.00 | 46 | 1009.9 |
| 20260503193043 | 82 | 344 | 0.9 | 4.3 | 0.00 | 0.00 | 0.00 | 45 | 1010.0 |
| 20260503192536 | 81 | 286 | 0.9 | 7.0 | 0.00 | 0.00 | 0.00 | 47 | 1010.1 |
| 20260503192035 | 81 | 22 | 1.7 | 7.0 | 0.00 | 0.00 | 0.00 | 48 | 1010.2 |
| 20260503191534 | 80 | 292 | 0.9 | 6.1 | 0.00 | 0.00 | 0.00 | 47 | 1010.2 |
| 20260503191036 | 80 | 285 | 2.6 | 6.1 | 0.00 | 0.00 | 0.00 | 49 | 1010.2 |
| 20260503190531 | 79 | 294 | 0.0 | 7.8 | 0.00 | 0.00 | 0.00 | 53 | 1010.3 |
| 20260503190032 | 79 | 308 | 2.6 | 7.8 | 0.00 | 0.00 | 0.00 | 52 | 1010.4 |
| 20260503185529 | 78 | 276 | 3.5 | 7.0 | 0.00 | 0.00 | 0.00 | 54 | 1010.4 |
| 20260503185028 | 78 | 349 | 1.7 | 7.0 | 0.00 | 0.00 | 0.00 | 57 | 1010.6 |
| 20260503184527 | 77 | 291 | 0.9 | 7.0 | 0.00 | 0.00 | 0.00 | 55 | 1010.7 |
| 20260503184025 | 77 | 283 | 0.9 | 6.1 | 0.00 | 0.00 | 0.00 | 59 | 1010.5 |
| 20260503183525 | 76 | 313 | 1.7 | 7.0 | 0.00 | 0.00 | 0.00 | 56 | 1010.6 |
| 20260503183023 | 76 | 313 | 0.0 | 7.0 | 0.00 | 0.00 | 0.00 | 59 | 1010.8 |
| 20260503182523 | 76 | 286 | 1.7 | 7.0 | 0.00 | 0.00 | 0.00 | 58 | 1010.8 |
| 20260503182021 | 76 | 313 | 0.9 | 7.0 | 0.00 | 0.00 | 0.00 | 58 | 1010.9 |
| 20260503181520 | 75 | 303 | 3.5 | 7.8 | 0.00 | 0.00 | 0.00 | 61 | 1010.8 |
| 20260503181019 | 75 | 290 | 4.3 | 7.8 | 0.00 | 0.00 | 0.00 | 62 | 1010.9 |
| 20260503180518 | 74 | 288 | 3.5 | 7.8 | 0.00 | 0.00 | 0.00 | 64 | 1010.9 |
| 20260503180019 | 74 | 299 | 3.5 | 7.8 | 0.00 | 0.00 | 0.00 | 62 | 1011.1 |
| 20260503175514 | 73 | 290 | 3.5 | 7.0 | 0.00 | 0.00 | 0.00 | 63 | 1011.1 |
| 20260503175014 | 73 | 286 | 1.7 | 6.1 | 0.00 | 0.00 | 0.00 | 64 | 1011.2 |
| 20260503174513 | 73 | 295 | 1.7 | 7.0 | 0.00 | 0.00 | 0.00 | 65 | 1011.2 |
| 20260503174012 | 73 | 304 | 3.5 | 7.0 | 0.00 | 0.00 | 0.00 | 64 | 1011.5 |
| 20260503173511 | 73 | 318 | 2.6 | 7.0 | 0.00 | 0.00 | 0.00 | 63 | 1011.3 |
| 20260503173020 | 72 | 349 | 1.7 | 4.3 | 0.00 | 0.00 | 0.00 | 62 | 1011.3 |
| 20260503172508 | 72 | 311 | 2.6 | 4.3 | 0.00 | 0.00 | 0.00 | 63 | 1011.4 |
| 20260503172007 | 72 | 310 | 2.6 | 5.2 | 0.00 | 0.00 | 0.00 | 62 | 1011.4 |
| 20260503171515 | 72 | 16 | 2.6 | 5.2 | 0.00 | 0.00 | 0.00 | 64 | 1011.5 |
| 20260503171005 | 71 | 349 | 2.6 | 4.3 | 0.00 | 0.00 | 0.00 | 65 | 1011.6 |
| 20260503170503 | 70 | 12 | 2.6 | 5.2 | 0.00 | 0.00 | 0.00 | 65 | 1011.5 |
| 20260503150534 | 55 | 226 | 0.0 | 1.7 | 0.00 | 0.00 | 0.00 | 95 | 1012.3 |
| 20260503131033 | 48 | 227 | 0.0 | 0.9 | 0.00 | 0.00 | 0.00 | 95 | 1011.8 |
| 20260503130528 | 48 | 227 | 0.0 | 1.7 | 0.00 | 0.00 | 0.00 | 94 | 1011.8 |
| 20260503110517 | 51 | 225 | 0.0 | 0.0 | 0.00 | 0.00 | 0.00 | 92 | 1012.0 |
| 20260503090502 | 54 | 215 | 0.0 | 0.0 | 0.00 | 0.00 | 0.00 | 92 | 1012.4 |
| 20260503081557 | 54 | 229 | 0.0 | 0.0 | 0.00 | 0.02 | 0.00 | 90 | 1012.2 |
| 20260503081100 | 54 | 227 | 0.0 | 0.0 | 0.00 | 0.02 | 0.00 | 90 | 1012.4 |
| 20260503080558 | 54 | 229 | 0.0 | 0.0 | 0.00 | 0.02 | 0.00 | 90 | 1012.3 |
| 20260503072550 | 55 | 211 | 0.0 | 1.7 | 0.00 | 0.02 | 0.00 | 89 | 1012.4 |
| 20260503072051 | 56 | 219 | 0.0 | 1.7 | 0.00 | 0.02 | 0.00 | 89 | 1012.4 |
| 20260503071557 | 56 | 227 | 0.9 | 1.7 | 0.00 | 0.02 | 0.00 | 89 | 1012.4 |
| 20260503071048 | 56 | 227 | 0.0 | 0.9 | 0.00 | 0.02 | 0.00 | 89 | 1012.3 |
| 20260503070548 | 56 | 216 | 0.0 | 0.9 | 0.00 | 0.02 | 0.00 | 89 | 1012.5 |
| 20260503070109 | 56 | 228 | 0.0 | 0.0 | 0.00 | 0.02 | 0.00 | 88 | 1012.4 |
| 20260503060107 | 59 | 227 | 0.0 | 2.6 | 0.00 | 0.02 | 0.02 | 85 | 1012.3 |
| 20260503055047 | 59 | 229 | 0.0 | 2.6 | 0.00 | 0.02 | 0.02 | 85 | 1012.4 |
| 20260503054545 | 59 | 229 | 0.9 | 2.6 | 0.00 | 0.02 | 0.02 | 84 | 1012.4 |
| 20260503054044 | 60 | 255 | 0.0 | 1.7 | 0.00 | 0.02 | 0.02 | 84 | 1012.2 |
| 20260503053544 | 60 | 254 | 0.0 | 3.5 | 0.00 | 0.02 | 0.02 | 83 | 1012.1 |
| 20260503053044 | 60 | 255 | 0.0 | 3.5 | 0.00 | 0.02 | 0.02 | 83 | 1012.0 |
| 20260503052542 | 60 | 254 | 0.9 | 2.6 | 0.00 | 0.02 | 0.02 | 83 | 1011.9 |
| 20260503052043 | 60 | 165 | 0.0 | 1.7 | 0.00 | 0.02 | 0.02 | 83 | 1011.9 |
| 20260503051547 | 60 | 165 | 0.0 | 1.7 | 0.00 | 0.02 | 0.02 | 82 | 1012.1 |
| 20260503051043 | 61 | 165 | 0.0 | 1.7 | 0.00 | 0.02 | 0.02 | 82 | 1012.2 |
| 20260503050543 | 61 | 163 | 0.9 | 1.7 | 0.00 | 0.02 | 0.02 | 82 | 1012.1 |
| 20260503050044 | 61 | 166 | 0.0 | 1.7 | 0.00 | 0.02 | 0.02 | 81 | 1012.2 |
| 20260503045543 | 61 | 166 | 0.9 | 2.6 | 0.00 | 0.02 | 0.02 | 81 | 1012.3 |
| 20260503045043 | 61 | 165 | 0.0 | 2.6 | 0.00 | 0.02 | 0.02 | 81 | 1012.4 |
| 20260503044544 | 62 | 166 | 0.0 | 2.6 | 0.00 | 0.02 | 0.02 | 80 | 1012.6 |
| 20260503044046 | 62 | 166 | 0.0 | 1.7 | 0.00 | 0.02 | 0.02 | 80 | 1012.5 |
| 20260503043542 | 62 | 166 | 0.0 | 0.0 | 0.00 | 0.02 | 0.02 | 79 | 1012.5 |
| 20260503043044 | 62 | 166 | 0.0 | 1.7 | 0.00 | 0.02 | 0.02 | 79 | 1012.5 |
| 20260503042541 | 62 | 166 | 0.0 | 1.7 | 0.00 | 0.02 | 0.02 | 79 | 1012.6 |
| 20260503042042 | 63 | 165 | 0.0 | 2.6 | 0.00 | 0.02 | 0.02 | 78 | 1012.7 |
| 20260503041542 | 63 | 165 | 0.0 | 4.3 | 0.00 | 0.02 | 0.02 | 78 | 1012.6 |
| 20260503041045 | 63 | 165 | 1.7 | 4.3 | 0.00 | 0.02 | 0.02 | 77 | 1012.5 |
| 20260503040541 | 63 | 163 | 0.0 | 1.7 | 0.00 | 0.02 | 0.02 | 76 | 1012.4 |
| 20260503040042 | 64 | 163 | 0.0 | 0.0 | 0.00 | 0.02 | 0.02 | 76 | 1012.4 |
| 20260503035541 | 64 | 152 | 0.0 | 1.7 | 0.00 | 0.02 | 0.02 | 76 | 1012.3 |
| 20260503035041 | 64 | 153 | 0.0 | 1.7 | 0.00 | 0.02 | 0.02 | 76 | 1012.4 |
| 20260503034540 | 64 | 165 | 0.0 | 0.0 | 0.00 | 0.02 | 0.02 | 75 | 1012.3 |
| 20260503034045 | 64 | 165 | 0.0 | 0.0 | 0.00 | 0.02 | 0.02 | 74 | 1012.2 |
| 20260503033541 | 65 | 164 | 0.0 | 0.0 | 0.00 | 0.02 | 0.02 | 74 | 1012.3 |
| 20260503033047 | 65 | 164 | 0.0 | 0.0 | 0.00 | 0.02 | 0.02 | 74 | 1012.3 |
| 20260503032540 | 65 | 164 | 0.0 | 0.9 | 0.00 | 0.02 | 0.02 | 73 | 1012.2 |
| 20260503032038 | 65 | 165 | 0.0 | 4.3 | 0.00 | 0.02 | 0.02 | 73 | 1012.2 |
| 20260503031539 | 65 | 165 | 0.0 | 5.2 | 0.00 | 0.02 | 0.02 | 72 | 1012.4 |
| 20260503031038 | 65 | 161 | 3.5 | 5.2 | 0.00 | 0.02 | 0.02 | 72 | 1012.4 |
| 20260503030536 | 66 | 184 | 1.7 | 3.5 | 0.00 | 0.02 | 0.02 | 72 | 1012.4 |
| 20260503030037 | 66 | 188 | 0.9 | 8.7 | 0.00 | 0.02 | 0.02 | 72 | 1012.1 |
| 20260503025536 | 66 | 186 | 2.6 | 8.7 | 0.00 | 0.02 | 0.02 | 71 | 1012.2 |
| 20260503025035 | 67 | 160 | 2.6 | 12.2 | 0.00 | 0.02 | 0.02 | 70 | 1012.0 |
| 20260503024535 | 67 | 152 | 7.0 | 12.2 | 0.00 | 0.02 | 0.02 | 69 | 1012.0 |
| 20260503024036 | 68 | 179 | 6.1 | 13.0 | 0.00 | 0.02 | 0.02 | 68 | 1011.9 |
| 20260503023537 | 69 | 138 | 6.1 | 11.3 | 0.00 | 0.02 | 0.02 | 67 | 1011.9 |
| 20260503023034 | 70 | 164 | 5.2 | 10.4 | 0.00 | 0.02 | 0.02 | 65 | 1011.9 |
| 20260503022534 | 70 | 156 | 5.2 | 10.4 | 0.00 | 0.02 | 0.02 | 65 | 1011.6 |
| 20260503022043 | 70 | 162 | 3.5 | 9.6 | 0.00 | 0.02 | 0.02 | 64 | 1011.7 |
| 20260503021534 | 70 | 151 | 3.5 | 7.0 | 0.00 | 0.02 | 0.02 | 65 | 1011.7 |
| 20260503021034 | 70 | 172 | 3.5 | 5.2 | 0.00 | 0.02 | 0.02 | 65 | 1011.6 |
| 20260503020534 | 70 | 186 | 2.6 | 6.1 | 0.00 | 0.02 | 0.02 | 65 | 1011.3 |
| 20260503020034 | 70 | 188 | 1.7 | 5.2 | 0.00 | 0.02 | 0.02 | 66 | 1011.2 |
| 20260503015533 | 71 | 178 | 1.7 | 3.5 | 0.00 | 0.02 | 0.02 | 67 | 1011.1 |
| 20260503015036 | 71 | 188 | 1.7 | 3.5 | 0.00 | 0.02 | 0.02 | 66 | 1011.0 |
| 20260503014533 | 71 | 198 | 0.9 | 2.6 | 0.00 | 0.02 | 0.02 | 65 | 1011.0 |
| 20260503014033 | 71 | 198 | 0.0 | 3.5 | 0.00 | 0.02 | 0.02 | 65 | 1010.8 |
| 20260503013533 | 72 | 198 | 0.9 | 3.5 | 0.00 | 0.02 | 0.02 | 64 | 1010.9 |
| 20260503013044 | 72 | 221 | 0.9 | 2.6 | 0.00 | 0.02 | 0.02 | 62 | 1011.0 |
| 20260503012533 | 72 | 281 | 0.9 | 2.6 | 0.00 | 0.02 | 0.02 | 62 | 1010.8 |
| 20260503012031 | 72 | 284 | 0.9 | 2.6 | 0.00 | 0.02 | 0.02 | 63 | 1010.9 |
| 20260503011536 | 72 | 286 | 0.9 | 2.6 | 0.00 | 0.02 | 0.02 | 62 | 1010.9 |
| 20260503011036 | 72 | 287 | 0.0 | 0.9 | 0.00 | 0.02 | 0.02 | 60 | 1010.7 |
| 20260503010531 | 72 | 287 | 0.0 | 1.7 | 0.00 | 0.02 | 0.02 | 61 | 1010.7 |
| 20260503010033 | 72 | 287 | 0.0 | 1.7 | 0.00 | 0.02 | 0.02 | 61 | 1010.9 |
| 20260503005531 | 72 | 289 | 0.0 | 1.7 | 0.00 | 0.02 | 0.02 | 60 | 1010.9 |
| 20260503005033 | 72 | 289 | 0.0 | 1.7 | 0.00 | 0.02 | 0.02 | 60 | 1010.9 |
| 20260503004533 | 72 | 289 | 0.0 | 2.6 | 0.00 | 0.02 | 0.02 | 61 | 1010.9 |
| 20260503004030 | 72 | 290 | 0.0 | 2.6 | 0.00 | 0.02 | 0.02 | 61 | 1011.0 |
| 20260503003530 | 72 | 290 | 0.9 | 2.6 | 0.00 | 0.02 | 0.02 | 60 | 1011.0 |
| 20260503003032 | 72 | 293 | 0.0 | 4.3 | 0.00 | 0.02 | 0.02 | 61 | 1011.0 |
| 20260503002529 | 72 | 294 | 0.0 | 4.3 | 0.00 | 0.02 | 0.02 | 61 | 1011.0 |
| 20260503002029 | 72 | 309 | 1.7 | 3.5 | 0.00 | 0.02 | 0.02 | 61 | 1010.9 |
| 20260503001529 | 72 | 213 | 0.0 | 2.6 | 0.00 | 0.02 | 0.02 | 60 | 1011.0 |
| 20260503001029 | 72 | 213 | 0.9 | 3.5 | 0.00 | 0.02 | 0.02 | 60 | 1011.0 |
| 20260503000528 | 72 | 195 | 0.9 | 6.1 | 0.00 | 0.02 | 0.02 | 60 | 1010.9 |
| 20260503000029 | 72 | 176 | 1.7 | 6.1 | 0.00 | 0.02 | 0.02 | 61 | 1011.0 |
| 20260502235528 | 72 | 301 | 1.7 | 7.8 | 0.00 | 0.02 | 0.02 | 60 | 1011.0 |
| 20260502235029 | 72 | 300 | 1.7 | 7.8 | 0.00 | 0.02 | 0.02 | 60 | 1011.0 |
| 20260502234526 | 72 | 238 | 0.0 | 3.5 | 0.00 | 0.02 | 0.02 | 61 | 1011.1 |
| 20260502234026 | 72 | 298 | 0.9 | 4.3 | 0.00 | 0.02 | 0.02 | 62 | 1011.2 |
| 20260502233524 | 71 | 298 | 0.0 | 6.1 | 0.00 | 0.02 | 0.02 | 61 | 1011.2 |
| 20260502233024 | 71 | 244 | 1.7 | 5.2 | 0.00 | 0.02 | 0.02 | 61 | 1011.2 |
| 20260502232524 | 71 | 197 | 1.7 | 4.3 | 0.00 | 0.02 | 0.02 | 62 | 1011.3 |
| 20260502232023 | 71 | 300 | 1.7 | 4.3 | 0.00 | 0.02 | 0.02 | 61 | 1011.3 |
| 20260502231523 | 71 | 199 | 0.0 | 3.5 | 0.00 | 0.02 | 0.02 | 61 | 1011.4 |
| 20260502231023 | 71 | 284 | 0.0 | 1.7 | 0.00 | 0.02 | 0.02 | 64 | 1011.5 |
| 20260502230522 | 71 | 313 | 0.0 | 6.1 | 0.00 | 0.02 | 0.02 | 63 | 1011.7 |
| 20260502230123 | 71 | 313 | 0.9 | 6.1 | 0.00 | 0.02 | 0.02 | 62 | 1011.5 |
| 20260502225520 | 71 | 283 | 0.9 | 6.1 | 0.00 | 0.02 | 0.02 | 61 | 1011.8 |
| 20260502225021 | 71 | 227 | 0.9 | 4.3 | 0.00 | 0.02 | 0.02 | 60 | 1011.9 |
| 20260502224521 | 71 | 254 | 0.9 | 6.1 | 0.00 | 0.02 | 0.02 | 60 | 1011.9 |
| 20260502224020 | 71 | 243 | 1.7 | 6.1 | 0.00 | 0.02 | 0.02 | 61 | 1012.0 |
| 20260502223519 | 71 | 202 | 0.0 | 4.3 | 0.00 | 0.02 | 0.02 | 63 | 1012.2 |
| 20260502223018 | 71 | 248 | 1.7 | 4.3 | 0.00 | 0.02 | 0.02 | 60 | 1012.2 |
| 20260502222518 | 71 | 316 | 0.0 | 7.0 | 0.00 | 0.02 | 0.02 | 61 | 1012.4 |
| 20260502222016 | 71 | 294 | 2.6 | 7.0 | 0.00 | 0.02 | 0.02 | 62 | 1012.4 |
| 20260502221516 | 70 | 295 | 2.6 | 7.0 | 0.00 | 0.02 | 0.02 | 64 | 1012.4 |
| 20260502221016 | 70 | 333 | 0.9 | 4.3 | 0.00 | 0.02 | 0.02 | 62 | 1012.6 |
| 20260502220514 | 70 | 338 | 0.9 | 7.0 | 0.00 | 0.02 | 0.02 | 62 | 1012.7 |
| 20260502220012 | 70 | 342 | 2.6 | 7.0 | 0.00 | 0.02 | 0.02 | 63 | 1012.7 |
| 20260502215512 | 69 | 312 | 1.7 | 5.2 | 0.00 | 0.02 | 0.02 | 63 | 1012.9 |
| 20260502215012 | 69 | 338 | 2.6 | 5.2 | 0.00 | 0.02 | 0.02 | 68 | 1012.9 |
| 20260502214511 | 68 | 331 | 0.0 | 5.2 | 0.00 | 0.02 | 0.02 | 65 | 1013.1 |
| 20260502214010 | 68 | 240 | 0.9 | 7.0 | 0.00 | 0.02 | 0.02 | 63 | 1013.1 |
| 20260502213510 | 69 | 240 | 2.6 | 7.0 | 0.00 | 0.02 | 0.02 | 62 | 1013.0 |
| 20260502213009 | 69 | 68 | 2.6 | 7.0 | 0.00 | 0.02 | 0.02 | 63 | 1013.2 |
| 20260502212508 | 69 | 346 | 2.6 | 7.8 | 0.00 | 0.02 | 0.02 | 63 | 1013.3 |
| 20260502212008 | 69 | 21 | 3.5 | 7.8 | 0.00 | 0.02 | 0.02 | 64 | 1013.4 |
| 20260502211517 | 68 | 360 | 2.6 | 7.8 | 0.00 | 0.02 | 0.02 | 64 | 1013.4 |
| 20260502211004 | 68 | 19 | 3.5 | 7.0 | 0.00 | 0.02 | 0.02 | 66 | 1013.5 |
| 20260502210503 | 68 | 300 | 0.9 | 7.0 | 0.00 | 0.02 | 0.02 | 64 | 1013.6 |
| 20260502210004 | 67 | 355 | 3.5 | 8.7 | 0.00 | 0.02 | 0.02 | 69 | 1013.8 |
| 20260502205503 | 67 | 292 | 3.5 | 8.7 | 0.00 | 0.02 | 0.02 | 66 | 1014.0 |
| 20260502205100 | 67 | 297 | 2.6 | 7.8 | 0.00 | 0.02 | 0.02 | 69 | 1014.1 |
| 20260502204559 | 66 | 291 | 2.6 | 7.0 | 0.00 | 0.02 | 0.02 | 67 | 1014.0 |
| 20260502204058 | 66 | 288 | 1.7 | 3.5 | 0.00 | 0.02 | 0.02 | 69 | 1014.1 |
| 20260502203558 | 65 | 348 | 0.0 | 3.5 | 0.00 | 0.02 | 0.02 | 69 | 1014.2 |
| 20260502203106 | 65 | 318 | 0.9 | 6.1 | 0.00 | 0.02 | 0.02 | 68 | 1014.2 |
| 20260502202554 | 64 | 294 | 1.7 | 6.1 | 0.00 | 0.02 | 0.02 | 69 | 1014.2 |
| 20260502202053 | 64 | 278 | 0.0 | 6.1 | 0.00 | 0.02 | 0.02 | 68 | 1014.3 |
| 20260502201605 | 64 | 101 | 0.9 | 3.5 | 0.00 | 0.02 | 0.02 | 70 | 1014.5 |
| 20260502201053 | 64 | 131 | 0.9 | 7.0 | 0.00 | 0.02 | 0.02 | 69 | 1014.4 |
| 20260502200552 | 64 | 242 | 4.3 | 12.2 | 0.00 | 0.02 | 0.02 | 69 | 1014.4 |
| 20260502200051 | 64 | 9 | 5.2 | 12.2 | 0.00 | 0.02 | 0.02 | 70 | 1014.5 |